TimeCDT,TemperatureF,Dew PointF,Humidity,Sea Level PressureIn,VisibilityMPH,Wind Direction,Wind SpeedMPH,Gust SpeedMPH,PrecipitationIn,Events,Conditions,WindDirDegrees,DateUTC
12:56 AM,50.0,46.9,89,30.31,10.0,NNE,3.5,-,N/A,,Clear,30,2013-05-25 05:56:00
1:56 AM,47.8,45.9,93,30.31,10.0,Calm,Calm,-,N/A,,Clear,0,2013-05-25 06:56:00
2:56 AM,46.9,45.9,96,30.31,10.0,Calm,Calm,-,N/A,,Clear,0,2013-05-25 07:56:00
3:56 AM,45.9,45.9,100,30.31,10.0,Calm,Calm,-,N/A,,Clear,0,2013-05-25 08:56:00
4:56 AM,45.9,45.9,100,30.32,10.0,Calm,Calm,-,N/A,,Clear,0,2013-05-25 09:56:00
5:56 AM,45.0,45.0,100,30.34,8.0,Calm,Calm,-,N/A,,Clear,0,2013-05-25 10:56:00
6:56 AM,47.8,47.8,100,30.36,10.0,North,3.5,-,N/A,,Clear,350,2013-05-25 11:56:00
7:56 AM,59.0,48.9,69,30.37,10.0,East,5.8,-,N/A,,Clear,80,2013-05-25 12:56:00
8:56 AM,63.0,46.9,56,30.37,10.0,East,6.9,-,N/A,,Clear,100,2013-05-25 13:56:00
9:56 AM,66.9,48.9,52,30.37,10.0,ENE,5.8,-,N/A,,Clear,60,2013-05-25 14:56:00
10:56 AM,70.0,45.9,42,30.37,10.0,Variable,3.5,-,N/A,,Clear,0,2013-05-25 15:56:00
11:56 AM,72.9,46.9,40,30.36,10.0,Calm,Calm,-,N/A,,Clear,0,2013-05-25 16:56:00
12:56 PM,74.8,43.9,33,30.34,10.0,Calm,Calm,-,N/A,,Clear,0,2013-05-25 17:56:00
1:56 PM,77.9,45.0,31,30.33,10.0,Calm,Calm,-,N/A,,Clear,0,2013-05-25 18:56:00
2:56 PM,79.0,41.0,26,30.31,10.0,Calm,Calm,-,N/A,,Clear,0,2013-05-25 19:56:00
3:56 PM,79.9,45.0,29,30.30,10.0,Calm,Calm,-,N/A,,Clear,0,2013-05-25 20:56:00
4:56 PM,79.9,41.0,25,30.28,10.0,Calm,Calm,-,N/A,,Clear,0,2013-05-25 21:56:00
5:56 PM,77.0,52.9,43,30.28,10.0,NE,3.5,-,N/A,,Clear,40,2013-05-25 22:56:00
6:56 PM,72.0,48.9,44,30.27,10.0,Calm,Calm,-,N/A,,Clear,0,2013-05-25 23:56:00
7:56 PM,63.9,52.9,67,30.27,10.0,Calm,Calm,-,N/A,,Clear,0,2013-05-26 00:56:00
8:56 PM,59.9,52.9,78,30.26,10.0,Calm,Calm,-,N/A,,Clear,0,2013-05-26 01:56:00
9:56 PM,57.9,52.9,83,30.27,10.0,Calm,Calm,-,N/A,,Clear,0,2013-05-26 02:56:00
10:56 PM,55.9,52.9,89,30.26,10.0,Calm,Calm,-,N/A,,Clear,0,2013-05-26 03:56:00
11:56 PM,54.9,50.9,86,30.25,10.0,Calm,Calm,-,N/A,,Clear,0,2013-05-26 04:56:00